Meteo Giornale » Osservazioni meteo Stati Uniti (USA) » Renton

ore: 22:53 - Osservazioni Meteo Renton
Lat. 47° 29' N Lon. 122° 12' W Alt. 8 metri s.l.m.

coperto

17 °C

Coperto

Temp. 24 Ore

14 °C

19 °C

Nord

0 Km/h

Dew point 14 °C

Umidità 82 %

Visibilità  10 Km

Il sole sorge alle ore 06:28

Il sole tramonta alle ore 19:49

Data e Ora Cielo e Fenomeni T °C DP °C Um. % Pres. hPa Vis. km Vento km/h
Oggi h: 22:53 coperto Coperto 17 14 82 1009 10 N 0
Oggi h: 22:36 coperto Coperto 17 14 82 1010 10 N 5.5
Oggi h: 22:13 coperto Coperto 17 14 82 1010 10 S 7.4
Oggi h: 21:53 molto_nuvoloso Molto Nuvoloso 16 14 87 1010 10 N 0
Oggi h: 20:53 molto_nuvoloso Molto Nuvoloso 17 14 82 1010 10 N 5.5
Oggi h: 19:53 coperto_pioggia Pioggia 17 14 82 1010 8 S/SO 16.7
Oggi h: 18:53 coperto Coperto 19 13 68 1009 10 S/SE 9.3
Oggi h: 17:53 coperto Coperto 19 13 68 1009 10 S 13
Oggi h: 16:53 coperto Coperto 19 13 68 1009 10 S 14.8
Oggi h: 15:53 coperto Coperto 19 13 68 1009 10 S 16.7
Oggi h: 14:53 coperto Coperto 19 13 68 1009 10 S/SO 11.1
Oggi h: 14:10 coperto Coperto 19 13 68 1009 10 S/SO 13
Oggi h: 13:53 coperto Coperto 19 13 68 1010 10 S 13
Oggi h: 13:15 coperto Coperto 19 13 68 1010 10 S 7.4
Oggi h: 12:53 coperto Coperto 19 13 68 1010 10 N 7.4
Oggi h: 12:19 coperto Coperto 19 13 68 1010 10 S/SE 13
Oggi h: 11:53 coperto Coperto 19 13 68 1010 10 S 16.7
Oggi h: 10:53 coperto Coperto 18 13 72 1010 10 S/SE 13
Oggi h: 09:53 coperto Coperto 17 13 77 1010 10 S 11.1
Oggi h: 08:53 coperto Coperto 16 13 82 1010 10 S/SE 11.1
Oggi h: 07:53 coperto Coperto 16 13 82 1010 10 S 9.3
Oggi h: 07:26 molto_nuvoloso Molto Nuvoloso 14 12 87 1010 10 SE 7.4
Oggi h: 06:53 sereno Sereno 14 12 87 1010 10 N 5.5
Oggi h: 05:53 sereno Sereno 14 12 87 1009 10 S/SE 9.3
Oggi h: 04:53 sereno Sereno 14 12 87 1009 10 N 0
Oggi h: 03:53 sereno Sereno 14 13 93 1009 10 N 0
Oggi h: 02:53 sereno Sereno 15 13 87 1008 10 N 0
Oggi h: 01:53 sereno Sereno 16 13 82 1008 10 N 5.5
Oggi h: 00:53 sereno Sereno 18 13 72 1008 10 N 7.4
Ieri h: 23:53 sereno Sereno 18 13 72 1008 10 N 11.1